Flag Weather past 2 weeks in Hollabrunn, Lower Austria, Austria

Now
38 °F

Chilly.


Feels Like: 38 °F
Forecast: 31 / 39 °F
Wind: 2 mph from Northeast

Location: Retz

Current Time: Nov 25, 2014 at 11:11:37 PM

Latest Report: Nov 25, 2014 at 9:00 PM


Visibility: N/A

Pressure: 30.34 "Hg

Humidity: 98%

Dew point: 37 °F

Location of HollabrunnLocation

Historic Weather in Hollabrunn — Graph

°F

Hollabrunn temperature yesterday

Maximum temperature yesterday: 41 °F (at 12:00 AM)
Minimum temperature yesterday: 36 °F (at 7:00 AM)
Average temperature yesterday: 38 °F

Past Weeks' High & Low Weather Summary

 TemperatureHumidityPressure
High57 °F (Nov 11, 3:00 PM)100% (Nov 11, 9:00 AM)30.40 "Hg (Nov 11, 9:00 AM)
Low36 °F (Nov 24, 7:00 AM)74% (Nov 21, 1:00 PM)29.63 "Hg (Nov 16, 6:00 AM)
Average45 °F91%30.03 "Hg
* Reported Nov 10 9:00 PM — Nov 25 9:00 PM, Hollabrunn, Weather by CustomWeather, © 2014

Note: Actual official high and low records may vary slightly from our data, if they occured in-between our weather recording intervals... More about our weather records

Advertising

Hollabrunn weather history for previous 24 hours

 ConditionsComfort  
Time TempWeatherWind HumidityBarometerVisibility
9:00 PM
Nov 25
38 °FChilly.2 mph98%30.34 "HgN/A
8:00 PM38 °FChilly.2 mph97%30.34 "HgN/A
7:00 PM38 °FFog.2 mph98%30.34 "Hg2 mi
6:00 PM38 °FChilly.1 mph97%30.35 "HgN/A
5:00 PM38 °FChilly.2 mph97%30.35 "HgN/A
4:00 PM38 °FChilly.3 mph96%30.35 "HgN/A
3:00 PM39 °FChilly.2 mph97%30.34 "HgN/A
2:00 PM38 °FChilly.3 mph96%30.35 "HgN/A
1:00 PM38 °FFog.3 mph96%30.36 "Hg1 mi
12:00 PM38 °FChilly.2 mph98%30.36 "HgN/A
11:00 AM38 °FChilly.2 mph100%30.37 "HgN/A
10:00 AM38 °FChilly.2 mph98%30.38 "HgN/A
9:00 AM37 °FChilly.2 mph99%30.38 "HgN/A
8:00 AM37 °FChilly.2 mph99%30.37 "HgN/A
7:00 AM37 °FFog.2 mph99%30.37 "Hg0 mi
6:00 AM37 °FChilly.2 mph99%30.37 "HgN/A
5:00 AM37 °FChilly.2 mph99%30.36 "HgN/A
4:00 AM37 °FChilly.3 mph99%30.36 "HgN/A
3:00 AM37 °FChilly.2 mph99%30.36 "HgN/A
2:00 AM38 °FChilly.3 mph99%30.36 "HgN/A
1:00 AM38 °FChilly.3 mph99%30.35 "HgN/A
12:00 AM38 °FChilly.2 mph98%30.35 "HgN/A
11:00 PM
Nov 24
38 °FChilly.2 mph99%30.35 "HgN/A
Weather by CustomWeather, © 2014

See weather overviewHow to use our weather pages